This is the latest recevied weather packets stored in our database for station/object DG3RAP-11. If no packets are shown the sender has not sent any weather packets the latest 1 day(s).
| Time | Temp. | Humidity | Pressure | Rain* | Wind** | Luminosity | Snow |
|---|---|---|---|---|---|---|---|
| 1778010843 | 13.33° C | 91% | 1006.8 hPa | 0 mm | 1.79 m/s, 277° | - | - |
| 1778010303 | 13.33° C | 92% | 1007 hPa | 0 mm | 1.79 m/s, 279° | - | - |
| 1778009763 | 13.33° C | 91% | 1006.9 hPa | 0 mm | 2.24 m/s, 275° | - | - |
| 1778009223 | 13.33° C | 90% | 1006.6 hPa | 0 mm | 1.34 m/s, 274° | - | - |
| 1778008683 | 13.89° C | 88% | 1006.7 hPa | 0 mm | 1.34 m/s, 281° | - | - |
| 1778008143 | 13.89° C | 88% | 1006.5 hPa | 0 mm | 1.79 m/s, 283° | - | - |
| 1778007603 | 13.89° C | 90% | 1006.1 hPa | 0 mm | 0.89 m/s, 290° | - | - |
| 1778007243 | 13.89° C | 92% | 1006.5 hPa | 0 mm | 1.79 m/s, 286° | - | - |
| 1778006703 | 13.89° C | 92% | 1006.3 hPa | 0 mm | 0.89 m/s, 261° | - | - |
| 1778006163 | 13.89° C | 92% | 1006 hPa | 0 mm | 0 m/s | - | - |
| 1778005623 | 13.89° C | 93% | 1006.2 hPa | 0 mm | 0.89 m/s, 302° | - | - |
| 1778005083 | 13.89° C | 94% | 1006 hPa | 0 mm | 0.45 m/s, 273° | - | - |
| 1778004543 | 13.89° C | 95% | 1006 hPa | 0 mm | 0.89 m/s, 82° | - | - |
| 1778004003 | 13.89° C | 95% | 1005.9 hPa | 0 mm | 0.45 m/s, 271° | - | - |
| 1778003643 | 13.33° C | 94% | 1005.6 hPa | 0 mm | 0.89 m/s, 288° | - | - |
| 1778003103 | 13.33° C | 95% | 1005.7 hPa | 0 mm | 1.79 m/s, 280° | - | - |
| 1778002563 | 13.89° C | 93% | 1005.5 hPa | 0.25 mm | 0.89 m/s, 26° | - | - |
| 1778002023 | 13.89° C | 94% | 1005.7 hPa | 1.02 mm | 1.34 m/s, 324° | - | - |
| 1778001483 | 13.89° C | 93% | 1005.7 hPa | 1.27 mm | 1.34 m/s, 294° | - | - |
| 1778000943 | 13.89° C | 92% | 1006 hPa | 1.52 mm | 1.34 m/s, 320° | - | - |
| 1778000403 | 13.89° C | 92% | 1005.7 hPa | 1.52 mm | 1.34 m/s, 37° | - | - |
| 1778000043 | 13.89° C | 92% | 1005.7 hPa | 1.52 mm | 1.79 m/s, 18° | - | - |
| 1777999503 | 13.89° C | 91% | 1005.4 hPa | 1.52 mm | 1.34 m/s, 274° | - | - |
| 1777998963 | 14.44° C | 86% | 1005.7 hPa | 1.27 mm | 4.47 m/s, 287° | - | - |
| 1777998424 | 15.56° C | 83% | 1006.2 hPa | 0.51 mm | 2.68 m/s, 288° | - | - |
* Rain latest hour (hover to see other rain measurements)
** Current wind speed in m/s (hover to see current wind gust speed)